Content
SEND FEEDBACK

Daily
Averages
Monthly
Summary
Malaysia

KOTA KINABALU, MALAYSIA


Home > Asia > Malaysia
Elevation: 10 feet     Latitude: 05 55N     Longitude: 116 03E

WEATHER
 
SELECT A DAY
Number of Records: 281,008;   Date Range: 8/9/96 - 12/18/14
 
SHARE

PRINT THIS DATA

[ ← Previous Day ]
WEATHER ALMANAC - NOVEMBER 16, 2013
[ Next Day → ]
[ °C ]   °F
Weather ElementAverageHighLow
Temperature80.4 °F89.6 °F (11:30 am)75 °F (5:00 am)
Dewpoint76 °F80.6 °F (11:30 am)71.6 °F (6:00 am)
Humidity86.6 %100 % (6:00 pm)64 % (2:00 pm)
Barometer29.77 in29.83 in (9:00 am)29.71 in (2:30 pm)
Wind Speed4.7 mph13.8 mph (3:30 pm)
Weather ElementAverage
Visibility6.5 mi
Wind DirectionSSE (142.9 °)

Weather ElementTotal
Precipitation---
Cooling Degree Days17.3 (Base 65)
Growing Degree Days32.3 (Base 50)
Averaged from 55 records on November 16, 2013
WEATHER CONDITIONS BREAKOUT
WIND DIRECTION BREAKOUT
WEATHER BY HOUR - NOVEMBER 16, 2013
[ °C ]   °F
Local TimeTemperatureDewpointHumidityBarometerVisibilityWind DirectionWind SpeedGust SpeedPrecipitationEventsConditions
12:30 AM77.0 °F75.2 °F94 %29.80 in6.2 miEast (100°)2.3 mphMostly Cloudy
1:00 AM77.0 °F75.2 °F94 %29.77 in6.2 miEast (100°)2.3 mphMostly Cloudy
1:30 AM77.0 °F75.2 °F94 %29.77 in6.2 miEast (100°)2.3 mphMostly Cloudy
2:00 AM77.0 °F74.0 °F89 %29.77 in11.0 miESE (110°)4.6 mphScattered Clouds
2:00 AM77.0 °F75.2 °F94 %29.77 in6.2 miESE (110°)4.6 mphMostly Cloudy
2:30 AM77.0 °F73.4 °F89 %29.74 in6.2 miESE (110°)4.6 mphMostly Cloudy
3:00 AM75.2 °F73.4 °F94 %29.74 in6.2 miESE (120°)4.6 mphMostly Cloudy
3:30 AM75.2 °F73.4 °F94 %29.74 in6.2 miESE (110°)4.6 mphMostly Cloudy
4:00 AM75.2 °F73.4 °F94 %29.74 in6.2 miEast (90°)3.5 mphMostly Cloudy
4:30 AM75.2 °F73.4 °F94 %29.74 in6.2 miESE (110°)3.5 mphMostly Cloudy
5:00 AM75.0 °F73.0 °F90 %29.76 in11.0 miEast (100°)4.6 mphScattered Clouds
5:00 AM75.2 °F73.4 °F94 %29.74 in6.2 miEast (100°)4.6 mphMostly Cloudy
5:30 AM75.2 °F73.4 °F94 %29.74 in6.2 miESE (110°)3.5 mphMostly Cloudy
6:00 AM75.2 °F71.6 °F89 %29.77 in6.2 miESE (120°)3.5 mphMostly Cloudy
6:30 AM75.2 °F71.6 °F89 %29.77 in6.2 miEast (100°)5.8 mphMostly Cloudy
7:00 AM77.0 °F73.4 °F89 %29.80 in6.2 miEast (100°)4.6 mphMostly Cloudy
7:30 AM78.8 °F73.4 °F83 %29.80 in6.2 miESE (120°)5.8 mphMostly Cloudy
8:00 AM80.0 °F73.0 °F75 %29.82 in11.0 miEast (100°)3.5 mphHaze
8:00 AM80.6 °F73.4 °F79 %29.80 in6.2 miEast (100°)3.5 mphMostly Cloudy
8:30 AM82.4 °F75.2 °F79 %29.80 in6.2 miESE (120°)3.5 mphMostly Cloudy
9:00 AM84.2 °F75.2 °F74 %29.83 in6.2 miSSW (210°)3.5 mphMostly Cloudy
9:30 AM86.0 °F78.8 °F79 %29.83 in6.2 miWSW (250°)4.6 mphMostly Cloudy
10:00 AM84.2 °F77.0 °F79 %29.83 in6.2 miSW (230°)6.9 mphMostly Cloudy
10:30 AM86.0 °F78.8 °F79 %29.83 in6.2 miWSW (240°)5.8 mphMostly Cloudy
11:00 AM87.0 °F79.0 °F72 %29.83 in9.0 miWest (260°)4.6 mphHaze
11:00 AM86.0 °F78.8 °F79 %29.83 in6.2 miWest (260°)4.6 mphMostly Cloudy
11:30 AM89.6 °F80.6 °F75 %29.80 in6.2 miWest (260°)4.6 mphMostly Cloudy
12:00 PM89.6 °F80.6 °F75 %29.80 in6.2 miWest (270°)3.5 mphMostly Cloudy
12:30 PM89.6 °F80.6 °F75 %29.77 in6.2 miWNW (290°)3.5 mphMostly Cloudy
1:00 PM89.6 °F78.8 °F70 %29.77 in6.2 miWNW (300°)3.5 mphMostly Cloudy
1:30 PM87.8 °F78.8 °F75 %29.74 in6.2 miNNW (330°)6.9 mphMostly Cloudy
2:00 PM88.0 °F77.0 °F64 %29.74 in6.0 miNNW (330°)5.8 mphPartly Cloudy
2:00 PM87.8 °F77.0 °F70 %29.74 in6.2 miNNW (330°)5.8 mphMostly Cloudy
2:30 PM86.0 °F75.2 °F70 %29.71 in6.2 miNorth (10°)4.6 mphMostly Cloudy
3:00 PM89.6 °F78.8 °F70 %29.71 in6.2 miNorth (360°)5.8 mphMostly Cloudy
3:30 PM82.4 °F77.0 °F84 %29.71 in6.2 miNNE (30°)13.8 mphRainLight Rain
4:00 PM80.6 °F78.8 °F94 %29.71 in6.2 miNorth (10°)4.6 mphRainLight Rain
4:30 PM80.6 °F78.8 °F94 %29.71 in6.2 miEast (90°)3.5 mphRainLight Rain
5:00 PM82.0 °F78.0 °F86 %29.73 in9.0 miNNE (30°)4.6 mphRainLight Rain
5:00 PM82.4 °F78.8 °F89 %29.71 in6.2 miNNE (30°)4.6 mphMostly Cloudy
5:30 PM80.6 °F78.8 °F94 %29.74 in1.9 miENE (70°)8.1 mphRainRain
6:00 PM78.8 °F78.8 °F100 %29.74 in1.9 miEast (90°)5.8 mphRainRain
6:30 PM78.8 °F77.0 °F94 %29.74 in3.7 miEast (100°)5.8 mphRainLight Rain
7:00 PM77.0 °F77.0 °F100 %29.74 in3.7 miESE (120°)5.8 mphRainLight Rain
7:30 PM78.8 °F77.0 °F94 %29.77 in6.2 miEast (100°)5.8 mphMostly Cloudy
8:00 PM78.0 °F76.0 °F90 %29.78 in11.0 miESE (110°)5.8 mphRainLight Rain
8:00 PM77.0 °F75.2 °F94 %29.77 in6.2 miESE (110°)5.8 mphMostly Cloudy
8:30 PM77.0 °F75.2 °F94 %29.77 in6.2 miEast (80°)3.5 mphMostly Cloudy
9:00 PM77.0 °F75.2 °F94 %29.80 in6.2 miSE (130°)4.6 mphMostly Cloudy
9:30 PM77.0 °F75.2 °F94 %29.80 in6.2 miESE (120°)3.5 mphMostly Cloudy
10:00 PM77.0 °F75.2 °F94 %29.80 in6.2 miSE (130°)3.5 mphMostly Cloudy
10:30 PM77.0 °F75.2 °F94 %29.80 in6.2 miESE (110°)2.3 mphMostly Cloudy
11:00 PM77.0 °F76.0 °F94 %29.80 in11.0 miESE (110°)3.5 mphPartly Cloudy
11:00 PM77.0 °F75.2 °F94 %29.80 in6.2 miESE (110°)3.5 mphMostly Cloudy
11:30 PM77.0 °F75.2 °F94 %29.80 in6.2 miESE (120°)4.6 mphMostly Cloudy
Hourly data recorded from WBKK, located miles away from Kota Kinabalu, Malaysia







STORIES FROM OUR PARTNERS